Location: Peebles
(55.6412°N, 3.1714°W)
Time: 22:16:54
(UTC+01:00)

CENTAUR R/B - Pass Details

Date: 28 January 2022
Orbit: 716 x 1471 km, 63.4° (Epoch: 08 May)

Event Time Altitude Azimuth Distance (km) Brightness Sun altitude
Rises 22:49:03 0° 310° (NW) 4,068 6.4 -48.1°
Reaches altitude 10° 22:51:40 10° 307° (NW) 3,199 5.7 -48.4°
Enters shadow 22:54:23 25° 301° (WNW) 2,363 4.7 -48.6°
